Wind_Speed
37 38 39 39 40 41 42 43 43 43 44 45 47 48 50 51 53 54 56 57 58 60 61 61 61 61 61 61 61 61 61 61 60 60 59 58 58 58
38 38 39 40 41 42 43 44 44 45 46 47 49 50 52 53 55 57 59 60 62 62 62 62 62 62 61 61 61 61 60 60 59 59 58 58 58 58
38 39 40 41 41 43 43 44 45 46 47 49 51 52 54 56 58 60 61 63 63 63 63 62 62 62 62 61 61 60 59 59 58 58 57 57 58 58
39 40 41 42 42 43 44 45 47 48 49 50 52 54 56 58 60 62 63 63 63 63 62 62 62 62 61 60 59 59 58 58 57 56 56 56 56 56
39 40 41 42 43 44 45 47 48 49 51 52 54 56 58 60 61 62 62 62 62 63 62 62 61 60 60 59 58 58 57 56 56 55 54 54 54 53
40 41 42 43 44 45 46 48 49 50 52 54 56 57 59 60 62 62 61 62 63 63 62 61 60 59 58 58 57 56 56 55 54 53 53 52 50 49
40 41 42 43 45 46 47 48 50 51 53 55 57 58 59 61 61 62 62 62 62 61 60 59 58 57 57 56 55 55 54 53 52 51 50 49 48 46
41 42 43 44 46 47 48 49 51 53 55 57 58 59 59 61 61 62 63 62 60 58 57 56 56 55 54 54 54 54 52 51 49 48 47 46 45 44
41 42 43 45 46 47 48 50 52 54 56 57 58 59 60 61 62 63 62 61 59 57 56 55 54 53 53 52 52 50 48 46 44 43 42 41 39 39
42 43 44 45 46 47 49 51 53 55 56 58 58 60 61 62 62 62 61 59 58 57 55 53 52 52 51 50 47 45 43 42 41 40 39 38 37 36
42 43 44 45 46 48 50 52 53 55 56 57 58 60 61 62 62 61 59 57 55 53 53 52 51 49 48 46 44 42 41 40 39 38 37 36 35 34
42 43 44 45 47 49 50 52 53 54 55 57 59 60 62 62 61 59 57 55 53 51 50 50 49 47 44 43 42 40 39 38 37 36 35 33 32 31
42 44 45 46 47 49 51 52 53 54 55 57 59 60 61 61 59 57 55 53 52 51 50 49 47 45 44 42 40 39 37 36 35 34 33 31 30 28
42 43 45 46 48 49 51 52 53 54 56 58 59 60 60 59 56 55 53 52 50 49 49 48 46 44 43 41 39 36 35 34 33 32 31 29 27 25
42 44 45 46 48 49 51 52 54 55 57 58 59 60 59 56 55 53 51 50 49 49 48 46 45 43 42 40 36 34 33 32 31 29 28 26 24 22
43 44 45 47 48 50 51 52 54 56 58 59 59 59 56 54 53 51 49 48 48 48 47 45 43 41 40 37 35 33 32 30 29 27 25 24 22 20
43 44 45 47 49 50 52 53 55 57 58 59 58 57 55 52 51 49 48 47 46 45 44 42 41 40 37 35 33 31 30 29 27 25 23 22 20 19
43 44 46 48 50 51 52 53 55 57 58 58 57 55 53 51 49 48 47 46 45 43 41 40 38 37 35 34 32 30 29 27 26 23 21 19 19 18
44 45 47 48 50 51 52 54 55 57 57 56 55 53 51 49 48 46 45 44 43 41 40 38 36 34 32 31 30 28 27 25 23 21 19 18 17 17
44 46 47 49 50 51 53 54 55 56 55 55 53 51 49 48 46 45 44 42 41 40 38 37 34 32 30 28 27 26 25 23 21 20 18 17 16 16
45 46 47 49 50 52 53 54 55 55 54 53 52 49 47 46 45 44 42 40 39 37 36 34 33 31 29 27 26 25 23 21 20 18 17 16 15 15
45 46 47 49 50 51 53 54 54 54 53 52 50 47 45 44 43 42 40 38 36 35 34 33 31 28 26 25 24 23 22 20 18 17 15 14 13 12
45 46 47 48 50 51 52 53 53 53 51 50 48 45 44 43 41 39 37 36 35 34 32 31 28 26 25 23 22 21 20 18 17 16 14 13 12 11
Wind_Direction
303 303 304 305 305 306 306 306 307 308 308 308 308 308 308 308 307 307 307 306 306 305 304 303 302 301 299 299 298 297 295 293 292 290 288 286 285 284
302 303 304 305 305 305 306 306 307 308 309 309 308 308 308 308 308 308 308 307 307 306 305 304 303 302 301 300 299 297 296 295 293 291 289 287 285 284
302 302 303 304 305 306 306 307 307 308 309 309 309 309 309 309 309 309 309 308 307 307 306 305 305 303 302 301 300 298 298 297 295 292 290 288 287 285
301 302 303 304 305 306 306 307 307 308 309 309 310 309 309 309 309 310 309 309 308 307 307 306 305 304 303 302 301 300 299 298 296 294 292 290 289 287
301 302 303 304 305 306 306 307 308 309 309 310 311 310 310 310 310 310 310 310 309 308 307 307 306 305 305 303 302 301 300 299 297 296 294 292 290 288
301 302 303 304 305 305 306 307 308 309 310 311 312 312 312 312 312 311 311 311 310 309 308 307 307 306 305 305 304 303 302 300 299 297 295 293 292 289
301 303 303 304 305 306 307 308 309 311 312 312 313 314 314 314 313 313 313 312 311 310 309 309 308 307 307 306 305 304 303 302 300 299 297 295 293 290
301 302 303 304 305 306 308 310 311 312 313 313 314 315 315 315 314 315 314 313 312 311 310 310 309 309 308 307 307 306 304 303 302 301 300 297 295 293
301 302 303 304 306 308 309 311 312 313 314 315 315 316 316 316 316 316 316 315 314 313 313 312 311 311 310 309 309 308 307 306 305 304 303 301 298 296
301 302 304 305 307 308 310 311 313 314 314 315 316 317 317 317 317 317 317 316 315 315 315 314 313 313 312 312 312 311 309 309 308 307 306 303 302 301
301 303 305 306 308 309 311 312 313 314 315 316 317 318 318 318 318 318 318 317 317 317 316 316 315 315 315 315 314 313 312 311 310 309 308 305 304 302
302 304 305 307 308 310 311 313 314 315 316 317 318 319 319 319 319 318 318 318 318 318 317 317 317 317 316 316 315 313 312 312 311 310 310 308 306 305
303 305 306 307 309 311 312 314 315 316 317 318 319 319 320 320 319 319 318 319 319 319 319 319 319 318 318 318 316 314 314 313 312 312 312 310 310 308
304 305 307 309 310 312 314 315 316 317 318 319 320 321 321 320 319 319 319 319 320 320 320 320 320 319 319 319 317 316 316 315 314 314 313 313 313 312
305 306 308 310 311 313 314 316 317 318 319 320 321 321 321 320 320 320 320 320 320 320 320 321 320 320 320 320 319 317 317 317 317 317 315 315 315 313
305 307 309 310 312 314 315 317 318 319 320 321 321 321 321 321 321 321 320 320 320 321 321 321 321 321 322 322 321 319 319 319 319 318 317 317 316 315
306 308 309 311 313 314 315 317 318 319 320 321 322 322 321 321 321 321 321 321 321 321 321 322 322 322 322 322 322 322 321 321 321 320 319 319 319 318
306 308 310 311 313 315 316 317 318 319 320 321 322 322 321 322 322 322 322 322 322 323 323 323 323 323 323 322 322 322 322 322 322 322 321 320 321 322
307 308 310 312 314 315 316 317 318 320 321 321 322 322 321 322 322 322 323 323 323 324 324 324 325 324 324 323 323 323 324 324 323 323 323 323 323 323
307 309 311 313 314 316 317 318 319 320 321 321 322 321 321 321 322 322 323 323 323 324 325 325 325 325 325 325 324 325 326 325 324 324 325 325 325 325
308 310 312 313 314 316 317 318 319 320 321 322 322 321 321 321 322 322 323 323 324 325 326 326 326 326 327 327 327 327 328 327 327 328 329 329 328 329
309 311 312 313 315 316 318 319 320 321 321 322 321 321 321 322 322 322 323 324 325 326 327 327 327 327 327 327 328 329 330 330 331 332 334 335 336 337
309 311 313 314 316 317 318 319 320 321 321 322 321 321 321 322 322 322 323 323 324 325 326 327 328 328 328 328 329 331 332 331 332 334 336 339 343 346
Height
5730 5726 5722 5718 5714 5709 5705 5700 5696 5692 5687 5681 5675 5669 5663 5656 5650 5643 5636 5629 5621 5613 5605 5598 5591 5584 5577 5571 5564 5558 5552 5547 5542 5538 5533 5530 5527 5524
5722 5718 5714 5710 5705 5701 5696 5691 5686 5681 5677 5671 5665 5658 5652 5645 5638 5630 5623 5615 5606 5598 5589 5581 5574 5566 5559 5553 5546 5540 5534 5528 5523 5518 5514 5511 5507 5504
5714 5710 5706 5702 5697 5692 5687 5682 5677 5671 5666 5661 5654 5647 5640 5633 5625 5617 5609 5600 5591 5582 5573 5565 5557 5549 5542 5535 5528 5522 5516 5510 5504 5500 5495 5491 5488 5485
5706 5702 5698 5693 5689 5684 5678 5673 5667 5661 5656 5651 5644 5636 5628 5621 5612 5604 5594 5585 5576 5567 5558 5549 5541 5533 5525 5518 5511 5504 5498 5492 5487 5481 5477 5473 5469 5465
5697 5693 5688 5684 5679 5674 5669 5663 5657 5651 5645 5639 5632 5624 5616 5607 5599 5590 5580 5570 5561 5552 5543 5534 5525 5517 5509 5501 5494 5488 5481 5475 5470 5464 5459 5454 5450 5446
5688 5684 5679 5675 5670 5665 5659 5653 5647 5641 5634 5627 5620 5612 5603 5594 5585 5576 5567 5557 5547 5537 5527 5518 5510 5501 5494 5486 5479 5472 5465 5458 5452 5447 5442 5437 5433 5430
5679 5675 5670 5665 5660 5655 5649 5643 5637 5630 5623 5615 5608 5600 5590 5581 5571 5562 5552 5543 5533 5522 5513 5504 5495 5487 5479 5471 5463 5456 5449 5443 5437 5431 5426 5421 5417 5414
5670 5665 5661 5656 5650 5644 5639 5632 5626 5619 5611 5604 5596 5587 5577 5567 5558 5547 5537 5528 5520 5511 5500 5491 5482 5473 5465 5457 5449 5442 5435 5428 5422 5416 5411 5406 5402 5399
5660 5656 5651 5646 5640 5634 5628 5622 5614 5606 5599 5591 5583 5573 5564 5555 5545 5535 5523 5512 5503 5494 5486 5478 5468 5460 5451 5443 5435 5428 5421 5414 5409 5403 5398 5393 5389 5386
5651 5646 5641 5636 5630 5625 5619 5611 5604 5596 5588 5579 5571 5561 5551 5540 5530 5520 5510 5500 5490 5480 5471 5464 5456 5448 5439 5431 5423 5416 5409 5403 5397 5392 5387 5382 5378 5374
5641 5636 5631 5626 5620 5615 5609 5602 5594 5585 5575 5566 5557 5548 5537 5527 5517 5507 5497 5488 5479 5470 5460 5452 5445 5437 5429 5420 5413 5405 5399 5393 5388 5382 5377 5372 5368 5364
5631 5627 5621 5616 5610 5603 5597 5590 5583 5574 5565 5556 5546 5536 5525 5515 5504 5494 5485 5476 5467 5460 5451 5442 5434 5426 5421 5412 5404 5397 5390 5384 5379 5373 5368 5363 5359 5355
5621 5616 5611 5605 5599 5592 5586 5578 5571 5562 5554 5545 5535 5525 5514 5503 5493 5483 5473 5464 5456 5448 5440 5432 5424 5416 5409 5403 5396 5388 5382 5376 5371 5365 5360 5355 5351 5347
5611 5606 5601 5595 5588 5582 5574 5567 5559 5551 5542 5533 5523 5513 5503 5492 5482 5472 5463 5454 5446 5438 5430 5422 5415 5407 5400 5394 5387 5381 5374 5369 5363 5358 5353 5349 5345 5341
5601 5596 5590 5584 5578 5571 5564 5556 5548 5540 5531 5521 5512 5502 5491 5481 5472 5463 5453 5445 5437 5429 5421 5413 5406 5399 5392 5385 5379 5373 5368 5362 5357 5352 5347 5343 5339 5336
5590 5585 5579 5573 5567 5560 5553 5545 5537 5528 5519 5510 5500 5490 5480 5471 5462 5453 5445 5437 5428 5420 5412 5405 5397 5391 5384 5378 5372 5366 5361 5356 5351 5346 5342 5338 5334 5331
5580 5575 5569 5563 5557 5550 5542 5534 5526 5517 5508 5498 5489 5479 5470 5461 5452 5444 5436 5428 5420 5413 5405 5397 5390 5383 5377 5371 5366 5360 5355 5350 5345 5341 5337 5333 5330 5327
5570 5565 5559 5553 5546 5539 5531 5523 5515 5506 5497 5487 5478 5468 5460 5451 5443 5435 5427 5420 5412 5404 5397 5390 5384 5377 5371 5365 5360 5355 5350 5345 5340 5336 5333 5329 5326 5323
5559 5554 5548 5542 5535 5528 5520 5512 5504 5495 5486 5476 5467 5458 5450 5442 5434 5427 5419 5412 5404 5397 5390 5384 5377 5371 5366 5360 5355 5350 5345 5340 5336 5332 5329 5326 5323 5320
5548 5543 5537 5531 5524 5517 5509 5501 5492 5484 5475 5466 5457 5449 5441 5433 5426 5419 5411 5404 5397 5390 5384 5377 5371 5366 5360 5355 5350 5345 5341 5336 5332 5329 5326 5323 5320 5317
5538 5532 5526 5520 5513 5505 5498 5489 5481 5473 5464 5456 5447 5439 5432 5425 5418 5411 5404 5397 5390 5384 5378 5372 5366 5360 5355 5350 5346 5341 5337 5333 5329 5326 5323 5321 5318 5315
5527 5521 5515 5508 5502 5494 5486 5478 5470 5462 5454 5445 5437 5430 5423 5416 5409 5403 5396 5390 5384 5378 5372 5366 5361 5356 5351 5347 5342 5338 5334 5330 5327 5324 5321 5319 5316 5314
5516 5510 5504 5498 5491 5483 5475 5468 5460 5451 5443 5436 5428 5421 5414 5408 5401 5395 5389 5383 5378 5372 5367 5361 5356 5351 5347 5343 5339 5335 5331 5328 5325 5322 5320 5317 5315 5313